Regional Weather Roundup
Issued by NWS

Home | Current Version | Previous Version | Text Only | Print | Product List | Glossary Off
Versions: 1 2 3 4 5 6 7 8 9 10 11 12 13 14 15 16 17 18 19 20 21 22 23 24 25 26 27 28 29 30 31 32 33 34 35 36 37 38 39 40 41 42 43 44 45 46 47 48 49 50

000
ASUS44 KMEG 051700
RWRTN
TENNESSEE HOURLY STATE WEATHER ROUNDUP
NATIONAL WEATHER SERVICE MEMPHIS TN
1100 AM CST MON DEC 05 2016

TNZ002-004-019-021-049-052-054-088>092-051800-
WEST TENNESSEE

CITY           SKY/WX    TMP DP  RH WIND       PRES   REMARKS
MEMPHIS INTL   CLOUDY    44  41  89 MISG      30.00F
NWS MEMPHIS      N/A     43 N/A N/A MISG        N/A
JACKSON        CLOUDY    44  41  89 E7        30.02F
DYERSBURG      CLOUDY   N/A N/A N/A SE6       30.04R
$$

TNZ008-025-027-028-033-062-065-066-051800-
NORTH MIDDLE TENNESSEE

CITY           SKY/WX    TMP DP  RH WIND       PRES   REMARKS
NASHVILLE      CLOUDY    44  40  85 NE8       30.06F
CLARKSVILLE    CLOUDY    40  35  83 E9        30.07F WCI  34
SMYRNA         CLOUDY    44  43  96 NE7       30.06F FOG
CROSSVILLE     CLOUDY    45  43  93 NE6       30.02F
$$

TNZ061-075-076-078-094-096-097-051800-
SOUTH MIDDLE TENNESSEE

CITY           SKY/WX    TMP DP  RH WIND       PRES   REMARKS
TULLAHOMA      CLOUDY    46  45  93 E6        30.01F
WINCHESTER     CLOUDY    48  46  93 N5        30.02F
SHELBYVILLE    CLOUDY    48  46  93 N5        30.03F
$$

TNZ017-018-042-046-047-051800-
NORTHEAST TENNESSEE

CITY           SKY/WX    TMP DP  RH WIND       PRES   REMARKS
TRI CITIES     NOT AVBL
$$

TNZ012-013-036-069-073-074-051800-
CENTRAL EAST TENNESSEE

CITY           SKY/WX    TMP DP  RH WIND       PRES   REMARKS
KNOXVILLE      NOT AVBL
OAK RIDGE      CLOUDY    51  45  79 NE5       30.03F
$$

TNZ083-085-099-051800-
SOUTHEAST TENNESSEE

CITY           SKY/WX    TMP DP  RH WIND       PRES   REMARKS
CHATTANOOGA    NOT AVBL
$$

SKY/WX REPORTED AS FAIR MEANS FEW OR NO CLOUDS BELOW
12 THOUSAND FEET.





USA.gov is the U.S. government's official web portal to all federal, state and local government web resources and services.